Location: Baia Mare
(47.6567°N, 23.5850°E)
Time: 08:41:58
(UTC+03:00)

ISS - Pass Details

Date: 06 November 2018
Orbit: 403 x 408 km, 51.6° (Epoch: 21 October)

Event Time Altitude Azimuth Distance (km) Brightness Sun altitude
Exits shadow 05:39:12 33° 328° (NNW) 702 -3.0 -16.7°
Maximum altitude 05:39:57 39° 2° (N) 624 -3.0 -16.6°
Drops below altitude 10° 05:43:04 10° 74° (ENE) 1,465 0.1 -16.1°
Sets 05:45:14 0° 82° (E) 2,325 1.6 -15.7°
